Regional Weather Roundup
Issued by NWS Wilmington, NC

Home | Current Version | Previous Version | Text Only | Print | Product List | Glossary On
Versions: 1 2 3 4 5 6 7 8 9 10 11 12 13 14 15 16 17 18 19 20 21 22 23 24 25 26 27 28 29 30 31 32 33 34 35 36 37 38 39 40 41 42 43 44 45 46 47 48 49 50
000
ASUS42 KILM 252310
RWRILM
RWRILM
REGIONAL HOURLY WEATHER ROUNDUP
NATIONAL WEATHER SERVICE WILMINGTON NC
600 PM EST TUE NOV 25 2014

NOTE: "FAIR" INDICATES FEW OR NO CLOUDS BELOW 12,000 FEET WITH NO
SIGNIFICANT WEATHER AND/OR OBSTRUCTIONS TO VISIBILITY.

...............WFO WILMINGTON COUNTY WARNING AREA...............

......COASTAL NC AND SC COUNTIES......

CITY           SKY/WX    TMP DP  RH WIND       PRES   REMARKS
WILMINGTON     CLOUDY    64  62  93 E5        30.03S
SOUTHPORT      CLOUDY    63  61  93 CALM      30.03S
N MYRTLE BEACH CLOUDY    64  62  93 N3        30.02S
MYRTLE BEACH   CLOUDY    64  61  88 NE8       30.03R

......INLAND NC AND SC COUNTIES.......

CITY           SKY/WX    TMP DP  RH WIND       PRES   REMARKS
LUMBERTON      LGT RAIN  63  61  93 N3        30.04R FOG
ELIZABETHTOWN  DRIZZLE   63  63 100 CALM      30.04R
WHITEVILLE     LGT RAIN  63  63 100 CALM      30.01F
FLORENCE       LGT RAIN  62  60  93 CALM      30.03S FOG
DARLINGTON     CLOUDY    61  57  88 SE6       30.04S VSB 1/2

....................REST OF NORTH CAROLINA......................

.........EASTERN NC.........

CITY           SKY/WX    TMP DP  RH WIND       PRES   REMARKS
CAPE HATTERAS  CLOUDY    61  61 100 CALM      30.05R
JACKSONVILLE   CLOUDY    63  59  88 CALM      30.05S
MOREHEAD CITY  CLOUDY    64  62  93 CALM      30.05R
KENANSVILLE    LGT RAIN  55  53  92 NE3       30.07R
NEW BERN       CLOUDY    65  61  87 CALM      30.06R
ELIZABETH CITY LGT RAIN  57  50  77 N12       30.10R

.........CENTRAL NC.........

CITY           SKY/WX    TMP DP  RH WIND       PRES   REMARKS
RALEIGH DURHAM LGT RAIN  54  40  59 N3        30.07F
ROCKY MOUNT    LGT RAIN  53  50  89 CALM      30.07S
ROANOKE RAPIDS NOT AVBL
FAYETTEVILLE   LGT RAIN  55  52  89 NE13      30.06R
HOFFMAN        LGT RAIN  56  49  79 N6        30.06F

.........WESTERN NC.........

CITY           SKY/WX    TMP DP  RH WIND       PRES   REMARKS
CHARLOTTE      CLOUDY    57  35  43 NE7       30.04S
GREENSBORO     CLOUDY    54  38  54 E3        30.06R
HICKORY        NOT AVBL
BOONE          NOT AVBL
ASHEVILLE      NOT AVBL

.....................REST OF SOUTH CAROLINA.....................

.........EASTERN SC.........

CITY           SKY/WX    TMP DP  RH WIND       PRES   REMARKS
CHARLESTON     LGT RAIN  63  62  97 CALM      30.02R
BEAUFORT MCAS  LGT RAIN  63  61  93 CALM      30.00R FOG
HILTON HEAD    MOCLDY    63  63 100 N8        30.02R

.........CENTRAL SC.........

CITY           SKY/WX    TMP DP  RH WIND       PRES   REMARKS
COLUMBIA       CLOUDY    58  54  86 NW3       30.01F
ORANGEBURG     CLOUDY    60  57  89 E3        30.00F
SUMTER SHAW    CLOUDY    59  56  91 E3        29.99F

.........WESTERN SC.........

CITY           SKY/WX    TMP DP  RH WIND       PRES   REMARKS
GREENVILLE     NOT AVBL
ROCK HILL      CLOUDY    57  41  55 VRB5      30.03F
ANDERSON       CLOUDY    53  46  77 N3        30.02S
CLEMSON        NOT AVBL
GREENWOOD      CLOUDY    53  48  83 CALM      30.03R


...................COASTAL AND OFFSHORE REPORTS..................

................LOCAL PIERS AND NC RESERVE................


STATION/POSITION TIME  SKY/WX   TEMP    WIND        PRES    VSBY
                                AIR SEA DIR/SP/G
                 (UTC)          (F)     (DEG/KT/KT) (MB)    (MI)
JOHNY MRCER PIER 2300            63 61   10/  4/  5 1016.3R
NC RESRV MASNBRO 2200            63      30/  2     1017.0S
OCEAN CREST PIER 2300            64 59   40/  6/  7 1015.7F
SPRINGMAID  PIER 2300            60 57   30/  7/  7 1016.5R


................COASTAL AND OFFSHORE BUOYS................


STATION/POSITION TIME  SKY/WX   TEMP    WIND        PRES    VSBY
                                AIR SEA DIR/SP/G
                 (UTC)          (F)     (DEG/KT/KT) (MB)    (MI)
DIMNDSHOAL 41025 2300            67      30/  4/  6 1017.5R
WVE H/P(F/S)=  5/ 7 WND WVE H/P(F/S)=  2/ 4 SWL H/P/D(F/S/D)=  5/130/ 7

CAPE LOOKOUT     2200            62      50/  2/  3 1016.9R
ONSLOW BAY 41036 2300            67 69   60/  6/  8 1017.6R
WVE H/P(F/S)=  4/ 8 SWL H/P/D(F/S/D)=  3/120/ 8

5 WRITEBCH 41038 2200            58 59   30/  4/  4 1016.1R
MASONBORO  41110 2300               59                N/A
WVE H/P(F/S)=  3/ 8 WND WVE H/P(F/S)=  3/ 8

WILM HARBR 41108 2300               62                N/A
WVE H/P(F/S)=  3/ 7 WND WVE H/P(F/S)=  3/ 7

27WRITEBCH 41037 2200            63 67   50/  6/  8 1017.2S
FRYING PAN 41013 2300            65 70   70/ 10/ 12 1017.4R
WVE H/P(F/S)=  3/ 8 WND WVE H/P(F/S)=  2/ 4 SWL H/P/D(F/S/D)=  3/130/ 8

SUNST NRSH 41024 2200            59      CALM  /  4 1016.7R
CAPRS NRSH 41029 2200            60      80/  4/  6   N/A
EDISTO     41004 2300            69 74   50/  8/ 10 1015.6R
WVE H/P(F/S)=  4/ 8 SWL H/P/D(F/S/D)=  3/ 8



..........OFFSHORE BUOYS BEYOND 100 NM OFFSHORE...........
.....IN A TRIANGLE---HAT TO BERMUDA TO BAHAMAS TO HAT.....


STATION/POSITION TIME  SKY/WX   TEMP    WIND        PRES    VSBY
                                AIR SEA DIR/SP/G
                 (UTC)          (F)     (DEG/KT/KT) (MB)    (MI)
150E HAT   41001 NOT AVBL
W BERMUDA  41048 2204            75 75  160/ 14/ 17 1022.5
WVE H/P(F/S)=  6/ 8 WND WVE H/P(F/S)=  5/ 6 SWL H/P/D(F/S/D)=  5/150/ 8

ATLANTIC S 41049 2232            79 78   90/ 19/ 23 1023.6R
WVE H/P(F/S)=  8/ 8 WND WVE H/P(F/S)=  7/ 8 SWL H/P/D(F/S/D)=  3/240/14

E BAHAMAS  41046 2247            81 81   90/ 21/ 25 1018.8S
WVE H/P(F/S)=  9/ 9 WND WVE H/P(F/S)=  8/ 9 SWL H/P/D(F/S/D)=  3/ 20/16

NE BAHAMAS 41047 2217            78 78  130/ 16/ 17 1019.7F
WVE H/P(F/S)=  7/ 9 WND WVE H/P(F/S)=  5/ 7 SWL H/P/D(F/S/D)=  5/120/ 9

120E CANVRL41010 2300            78 78  160/ 17/ 21 1013.9F
WVE H/P(F/S)=  7/ 8 WND WVE H/P(F/S)=  7/ 8


END



USA.gov is the U.S. government's official web portal to all federal, state and local government web resources and services.